TimeMST,TemperatureF,Dew PointF,Humidity,Sea Level PressureIn,VisibilityMPH,Wind Direction,Wind SpeedMPH,Gust SpeedMPH,PrecipitationIn,Events,Conditions,WindDirDegrees,DateUTC
12:57 AM,21.9,12.9,68,30.19,10.0,Calm,Calm,-,N/A,,Clear,0,2014-01-20 07:57:00
1:57 AM,21.9,12.9,68,30.18,10.0,Calm,Calm,-,N/A,,Clear,0,2014-01-20 08:57:00
2:57 AM,19.9,12.0,71,30.19,10.0,Calm,Calm,-,N/A,,Clear,0,2014-01-20 09:57:00
3:57 AM,21.0,12.0,68,30.20,10.0,Calm,Calm,-,N/A,,Clear,0,2014-01-20 10:57:00
4:57 AM,19.0,12.0,74,30.25,10.0,Calm,Calm,-,N/A,,Clear,0,2014-01-20 11:57:00
5:57 AM,19.0,12.0,74,30.27,10.0,Calm,Calm,-,N/A,,Clear,0,2014-01-20 12:57:00
6:57 AM,18.0,10.9,74,30.33,10.0,Calm,Calm,-,N/A,,Clear,0,2014-01-20 13:57:00
7:57 AM,17.1,10.9,77,30.37,10.0,Calm,Calm,-,N/A,,Clear,0,2014-01-20 14:57:00
8:57 AM,28.0,17.1,63,30.34,10.0,Calm,Calm,-,N/A,,Clear,0,2014-01-20 15:57:00
9:57 AM,43.0,14.0,31,30.28,10.0,Calm,Calm,-,N/A,,Clear,0,2014-01-20 16:57:00
10:57 AM,50.0,10.0,20,30.27,10.0,ENE,4.6,-,N/A,,Clear,60,2014-01-20 17:57:00
11:57 AM,53.1,7.0,16,30.24,10.0,Variable,6.9,-,N/A,,Clear,0,2014-01-20 18:57:00
12:57 PM,54.0,3.0,13,30.23,10.0,East,5.8,-,N/A,,Clear,80,2014-01-20 19:57:00
1:57 PM,54.0,5.0,14,30.22,10.0,ENE,8.1,-,N/A,,Clear,70,2014-01-20 20:57:00
2:57 PM,54.0,8.1,16,30.24,10.0,ENE,10.4,-,N/A,,Clear,70,2014-01-20 21:57:00
3:57 PM,52.0,9.0,18,30.26,10.0,East,11.5,-,N/A,,Clear,80,2014-01-20 22:57:00
4:57 PM,48.9,8.1,19,30.31,10.0,East,8.1,-,N/A,,Clear,100,2014-01-20 23:57:00
5:57 PM,43.0,7.0,23,30.35,10.0,East,5.8,-,N/A,,Clear,90,2014-01-21 00:57:00
6:57 PM,36.0,8.1,31,30.41,10.0,Calm,Calm,-,N/A,,Clear,0,2014-01-21 01:57:00
7:57 PM,28.9,8.1,41,30.46,10.0,Calm,Calm,-,N/A,,Clear,0,2014-01-21 02:57:00
8:57 PM,26.1,9.0,49,30.44,10.0,Calm,Calm,-,N/A,,Clear,0,2014-01-21 03:57:00
9:57 PM,24.1,12.9,62,30.38,10.0,Calm,Calm,-,N/A,,Clear,0,2014-01-21 04:57:00
10:57 PM,26.1,10.0,51,30.35,10.0,ENE,4.6,-,N/A,,Clear,60,2014-01-21 05:57:00
11:57 PM,37.0,9.0,31,30.30,10.0,ENE,9.2,-,N/A,,Clear,60,2014-01-21 06:57:00